This demonstration page uses our WeatherBlox Daily Observations layout. Learn more.

Left ArrowRight Arrow

39.92423, -83.80882

Hourly Observations for April 28, 2020

Temp ( °F °C ) Dew Point ( °F °C ) Humidity (%) Winds ( mph kmh ) Pressure ( in mb ) Visibility ( mi km ) Precip ( " mm )
12:56 am 00:56 Cloudy with Light Rain 51 10.6 47 8.3 86 86 E 6 9 30.07 1018 10 16.0934 0 0
1:56 am 01:56 Cloudy 52 11.1 45 7.2 77 77 SE 10 17 30.04 1017 10 16.0934 0.001 0.001
2:56 am 02:56 Cloudy 53 11.7 44 6.7 72 72 SSE 10 17 30.02 1017 10 16.0934 0 0
3:56 am 03:56 Cloudy 53 11.7 44 6.7 72 72 S 7 11 30 1016 10 16.0934 0.46 11.684
4:56 am 04:56 Cloudy 53 11.7 44 6.7 72 72 S 5 7 30 1016 10 16.0934 1.47 37.338
5:56 am 05:56 Cloudy 54 12.2 44 6.7 69 69 SW 6 9 29.99 1016 10 16.0934 2.47 62.738
6:56 am 06:56 Cloudy 53 11.7 46 7.8 77 77 SSW 3 6 30 1016 10 16.0934 1.6 40.64
7:56 am 07:56 Cloudy 54 12.2 46 7.8 75 75 SSW 6 9 30 1016 10 16.0934 0.89 22.606
8:56 am 08:56 Mostly Cloudy 57 13.9 48 8.9 72 72 WSW 9 15 30.01 1016 10 16.0934 0 0
9:56 am 09:56 Cloudy 61 16.1 50 10 67 67 WSW 14 22 30.01 1016 10 16.0934 0.03 0.762
10:56 am 10:56 Cloudy 62 16.7 52 11.1 70 70 WSW 15 24 29.99 1016 10 16.0934 0 0
11:56 am 11:56 Mostly Sunny 67 19.4 54 12.2 63 63 SW 17 28 29.98 1015 10 16.0934 0 0
12:56 pm 12:56 Partly Cloudy 69 20.6 55 12.8 61 61 SSW 16 26 29.97 1015 10 16.0934 0 0
1:56 pm 13:56 Mostly Sunny 70 21.1 56 13.3 61 61 SSW 10 17 29.95 1014 10 16.0934 0 0
2:56 pm 14:56 Partly Cloudy 71 21.7 53 11.7 53 53 WSW 13 20 29.94 1014 10 16.0934 0 0
3:56 pm 15:56 Mostly Cloudy 72 22.2 54 12.2 53 53 SSW 14 22 29.91 1013 10 16.0934 0 0
4:56 pm 16:56 Cloudy 73 22.8 53 11.7 50 50 SW 12 19 29.89 1012 10 16.0934 0 0
5:56 pm 17:56 Cloudy 72 22.2 52 11.1 50 50 SW 12 19 29.88 1012 10 16.0934 0 0
6:56 pm 18:56 Cloudy 71 21.7 52 11.1 51 51 SSW 9 15 29.88 1012 10 16.0934 0 0
7:56 pm 19:56 Mostly Cloudy 69 20.6 52 11.1 55 55 S 7 11 29.86 1011 10 16.0934 0 0
8:56 pm 20:56 Cloudy 68 20 52 11.1 57 57 S 10 17 29.84 1011 10 16.0934 0 0
9:56 pm 21:56 Cloudy 66 18.9 53 11.7 63 63 S 10 17 29.86 1011 10 16.0934 0 0
10:56 pm 22:56 Cloudy 64 17.8 52 11.1 65 65 S 10 17 29.84 1010 10 16.0934 0 0
11:56 pm 23:56 Mostly Cloudy 63 17.2 51 10.6 65 65 S 12 19 29.81 1009 10 16.0934 0 0

Powered by AerisWeather